User: anonymous   Login
Location: Unspecified
(0.0000°N, 0.0000°E)
Time: 05:10:16
(UTC+02:00)
Language:

PSLV R/B - Orbit

View from above orbital plane
View from above orbital plane
View from above satellite
View from above satellite

Ground track
Ground track

The orbit data is extracted from the following two-line orbital elements,

1 29713U 07001E   16274.47337869  .00000523  00000-0  67394-4 0  9990
2 29713  97.7297 248.1190 0024097 225.9188 134.0044 14.84891213525523
Epoch (UTC): 30 September 2016 11:21:39
Eccentricity: 0.0024097
inclination: 97.7297°
perigee height: 597 km
apogee height: 631 km
right ascension of ascending node: 248.1190°
argument of perigee: 225.9188°
revolutions per day: 14.84891213
mean anomaly at epoch: 134.0044°
orbit number at epoch: 52552

The dashed part of the orbit path shows where the satellite is in the earth's shadow,  

DLR